Flag for South Africa Weather past 2 weeks in Pretoria, South Africa

Now
59 °F

Refreshingly cool.


Feels Like: 60 °F
Forecast: 46 / 65 °F
Wind: 3 mph from Northeast

Location: Waterkloof Lmb

Current Time: Jul 28, 2014 at 7:30:38 PM

Latest Report: Jul 28, 2014 at 7:00 PM


Visibility: N/A

Pressure: 30.51 "Hg

Humidity: 42%

Dew point: 36 °F

Location of PretoriaLocation

Historic Weather in Pretoria — Graph

°F

Pretoria temperature yesterday

Maximum temperature yesterday: 66 °F (at 2:00 PM)
Minimum temperature yesterday: 32 °F (at 4:00 AM)
Average temperature yesterday: 49 °F

Past Weeks' High & Low Weather Summary

 TemperatureHumidityPressure
High73 °F (Jul 24, 3:00 PM)87% (Jul 15, 6:00 AM)30.51 "Hg (Jul 15, 6:00 AM)
Low32 °F (Jul 27, 4:00 AM)9% (Jul 27, 2:00 PM)30.09 "Hg (Jul 18, 3:00 PM)
Average52 °F44%30.34 "Hg
* Reported Jul 13 6:00 PM — Jul 28 6:00 PM, Pretoria, Weather by CustomWeather, © 2014

Note: Actual official high and low records may vary slightly from our data, if they occured in-between our weather recording intervals... More about our weather records

Advertising

Pretoria weather history for previous 24 hours

 ConditionsComfort  
Time TempWeatherWind HumidityBarometerVisibility
6:00 PM
Jul 28
59 °FRefreshingly cool.5 mph42%30.48 "HgN/A
5:00 PM66 °FMild.5 mph32%30.45 "HgN/A
4:00 PM68 °FMild.1 mph30%30.45 "HgN/A
3:00 PM68 °FMild.5 mph33%30.45 "HgN/A
1:00 PM66 °FMild.8 mph37%30.48 "HgN/A
12:00 PM64 °FMild.7 mph40%30.48 "HgN/A
11:00 AM61 °FRefreshingly cool.8 mph39%30.51 "HgN/A
10:00 AM57 °FRefreshingly cool.10 mph44%30.51 "HgN/A
9:00 AM57 °FRefreshingly cool.6 mph48%30.48 "HgN/A
8:00 AM45 °FQuite cool.1 mph39%30.48 "HgN/A
7:00 AM34 °FChilly.3 mph51%30.45 "HgN/A
6:00 AM36 °FChilly.5 mph48%30.45 "HgN/A
5:00 AM37 °FChilly.5 mph45%30.42 "HgN/A
4:00 AM37 °FChilly.3 mph45%30.42 "HgN/A
3:00 AM39 °FChilly.3 mph42%30.42 "HgN/A
2:00 AM43 °FQuite cool.6 mph34%30.42 "HgN/A
1:00 AM41 °FQuite cool.5 mph39%30.42 "HgN/A
12:00 AM41 °FQuite cool.5 mph39%30.42 "HgN/A
11:00 PM
Jul 27
43 °FQuite cool.3 mph31%30.42 "HgN/A
10:00 PM45 °FQuite cool.3 mph31%30.42 "HgN/A
9:00 PM45 °FQuite cool.3 mph31%30.42 "HgN/A
8:00 PM50 °FCool.1 mph28%30.39 "HgN/A
7:00 PM50 °FCool.3 mph28%30.39 "HgN/A
Weather by CustomWeather, © 2014

See weather overviewHow to use our weather pages